Location: Holbach
(51.5399°N, 10.6036°E)
Time: 07:33:10
(UTC+00:00)

CARTOSAT-1 - Pass Details

Date: 18 September 2020
Orbit: 616 x 619 km, 97.8° (Epoch: 22 October)

Event Time Altitude Azimuth Distance (km) Brightness Sun altitude
Exits shadow 20:29:29 44° 10° (N) 868 4.4 -27.0°
Drops below altitude 10° 20:32:34 10° 351° (N) 1,996 6.8 -27.3°
Sets 20:34:46 0° 349° (NNW) 2,907 7.8 -27.5°
